Zurück zum Katalog

THOR ABLESTAR DEB

AktivLEO
NORAD 150·DEBRIS·🇺🇸 United States

Gestartet Jun 29, 1961 von Cape Canaveral Space Force Station

Loading…

Nächste Überflüge (nächste 24 Stunden)

TLE

AktuellSource: Space-Track

Epoche: Sep 14, 2026, 09:17 UTC

1 00150U 61015AL  26257.38749479  .00000411  00000-0  43431-3 0  9996
2 00150  66.2477  42.8821 0064411 210.1701 149.5655 13.83941872120849

Verfolge THOR ABLESTAR DEB in Echtzeit mit AllMySat

Download on the App Store